Station ROAM4 - Rock of Ages, MI Image indicating link to RSS feed of recent meteorological observations for station ROAM4


Conditions at ROAM4 as of
(3:00 pm EDT)
1900 GMT on 05/28/2024:
     

Click on the graph icon in the table below to see a time series plot of the last five days of that observation.

5-day plot - Wind Direction Wind Direction (WDIR): W ( 270 deg true )
5-day plot - Wind Speed Wind Speed (WSPD):1.5 m/s
5-day plot - Wind Gust Wind Gust (GST):1.5 m/s
5-day plot - Atmospheric Pressure Atmospheric Pressure (PRES):1018.4 mb
5-day plot - Pressure Tendency Pressure Tendency (PTDY): +1.3 mb ( Rising )
5-day plot - Air Temperature Air Temperature (ATMP): 13.3 °C
5-day plot - Wind Speed at 10 Meters Wind Speed at 10 meters (WSPD10M): 2 m/s
5-day plot - Wind Speed at 20 Meters Wind Speed at 20 meters (WSPD20M): 2 m/s
5-day plot -  Wind Speed, Wind Gust and Atmospheric Pressure Combined plot of Wind Speed, Gust, and Air Pressure
Continuous Winds
TIME
(EDT)
5-day plot - Wind Direction WDIR 5-day plot - Wind Speed WSPD
3:00 pmW ( 276 deg ) 1.5 m/s
2:50 pmWNW ( 283 deg ) 1.5 m/s
2:40 pmWNW ( 289 deg ) 3.1 m/s
2:30 pmW ( 280 deg ) 4.1 m/s
2:20 pmWNW ( 282 deg ) 5.7 m/s
2:10 pmW ( 273 deg ) 4.6 m/s
 
Peak gust during the measurement hour
TIME
(EDT)
5-day plot - Gust Direction GDR 5-day plot - Gust Speed GST
2:05 pmW ( 270 deg ) 7.2 m/s
Previous observations
TIME
(EDT)
5-day plot - Wind Direction
WDIR
 
5-day plot - Wind Speed
WSPD
m/s
5-day plot - Wind Gust
GST
m/s
5-day plot - Wave Height
WVHT
m
5-day plot - Dominant Wave Period
DPD
sec
5-day plot - Average Wave Period
APD
sec
5-day plot - Mean Wave Direction
MWD
 
5-day plot - Atmospheric Pressure
PRES
mb
5-day plot - Pressure Tendency
PTDY
mb
5-day plot - Air Temperature
ATMP
°C
5-day plot - Water Temperature
WTMP
°C
5-day plot - Dew Point
DEWP
°C
5-day plot - Salinity
SAL
psu
5-day plot - Visibility
VIS
km
5-day plot - Tide (above MLLW)
TIDE
m
2024-05-28 02:00 pm W 3 4----1018.0 +1.3 11.9-----
2024-05-28 01:00 pm N 3 3----1017.6 +1.5 12.4-----
2024-05-28 12:00 pm N 2 2----1017.1 +1.6 12.9-----
2024-05-28 11:00 amNNE 3 3----1016.7 +1.4 10.9-----
2024-05-28 10:00 am NW 7 7----1016.1 +1.4 12.4-----
2024-05-28 09:00 amNNW 7 8----1015.5 +1.5 11.9-----
2024-05-28 08:00 amNNW 7 7----1015.3 +1.8 11.7-----
2024-05-28 07:00 amNNW 6 7----1014.7 +2.1 12.4-----
2024-05-28 06:00 am N 6 6----1014.0 +2.1 11.3-----
2024-05-28 05:00 am N 5 6----1013.5 +1.9 13.0-----
2024-05-28 04:00 amNNE 8 8----1012.6 +1.6 11.6-----
2024-05-28 03:00 am N 8 9----1011.9 +1.4 13.9-----
2024-05-28 02:00 amNNE 6 6----1011.6 +1.4 13.6-----
2024-05-28 01:00 amNNE 8 9----1011.0 +1.7 15.2-----
2024-05-28 12:00 am N 8 8----1010.5 +1.8 16.1-----
2024-05-27 11:00 pm N 5 6----1010.2 +1.6 14.2-----
2024-05-27 10:00 pm NW 6 7----1009.3 +0.9 12.5-----
2024-05-27 09:00 pmWSW 10 10----1008.7 +0.3 11.6-----
2024-05-27 08:00 pmWSW 8 9----1008.6 +0.4 11.7-----
2024-05-27 07:00 pmWSW 10 10----1008.4 +0.3 12.1-----
2024-05-27 06:00 pmWSW 11 11----1008.4 +0.0 12.2-----
2024-05-27 05:00 pmWSW 10 11----1008.2 +0.0 12.0-----
2024-05-27 04:00 pm W 10 10----1008.1 -0.8 11.4-----
2024-05-27 03:00 pm W 10 10----1008.2 -0.7 11.6-----